Location: Bad Rothenbrunn
(47.2167°N, 11.2167°E)
Time: 16:38:41
(UTC+00:00)

Cosmos 2333 - Pass Details

Date: 03 March 2021
Orbit: 829 x 866 km, 70.9° (Epoch: 22 April)

Event Time Altitude Azimuth Distance (km) Brightness Sun altitude
Rises 18:30:10 0° 186° (S) 3,371 7.3 -15.5°
Reaches altitude 10° 18:32:40 10° 180° (S) 2,446 6.5 -15.9°
Maximum altitude 18:38:00 46° 109° (ESE) 1,126 4.4 -16.8°
Drops below altitude 10° 18:43:24 10° 38° (NE) 2,486 6.4 -17.7°
Sets 18:45:57 0° 32° (NNE) 3,432 7.2 -18.1°
